Regional Weather Roundup
Issued by NWS Wilmington, NC

Home | Current Version | Previous Version | Text Only | Print | Product List | Glossary On
Versions: 1 2 3 4 5 6 7 8 9 10 11 12 13 14 15 16 17 18 19 20 21 22 23 24 25 26 27 28 29 30 31 32 33 34 35 36 37 38 39 40 41 42 43 44 45 46 47 48 49 50
000
ASUS42 KILM 161310
RWRILM
RWRILM
REGIONAL HOURLY WEATHER ROUNDUP
NATIONAL WEATHER SERVICE WILMINGTON NC
900 AM EDT TUE SEP 16 2014

NOTE: "FAIR" INDICATES FEW OR NO CLOUDS BELOW 12,000 FEET WITH NO
SIGNIFICANT WEATHER AND/OR OBSTRUCTIONS TO VISIBILITY.

...............WFO WILMINGTON COUNTY WARNING AREA...............

......COASTAL NC AND SC COUNTIES......

CITY           SKY/WX    TMP DP  RH WIND       PRES   REMARKS
WILMINGTON     PTSUNNY   75  72  90 NW5       30.05R
SOUTHPORT      PTSUNNY   76  71  85 NW6       30.05S
N MYRTLE BEACH CLOUDY    74  71  91 CALM      30.05S
MYRTLE BEACH   PTSUNNY   75  72  88 NW6       30.05S

......INLAND NC AND SC COUNTIES.......

CITY           SKY/WX    TMP DP  RH WIND       PRES   REMARKS
LUMBERTON      CLOUDY    72  70  93 CALM      30.05S FOG
ELIZABETHTOWN  CLOUDY    72  71  97 CALM      30.06S
WHITEVILLE     CLOUDY    73  70  90 CALM      30.05S
FLORENCE       CLOUDY    75  72  90 CALM      30.06S
DARLINGTON     CLOUDY    72  68  88 CALM      30.08R

....................REST OF NORTH CAROLINA......................

.........EASTERN NC.........

CITY           SKY/WX    TMP DP  RH WIND       PRES   REMARKS
CAPE HATTERAS  PTSUNNY   74  69  85 W3        30.05F
JACKSONVILLE   CLOUDY    72  66  83 CALM      30.05S
MOREHEAD CITY  PTSUNNY   74  69  85 NE3       30.05S
KENANSVILLE    PTSUNNY   72  69  92 CALM      30.07S
NEW BERN       CLOUDY    75  67  76 CALM      30.06S
ELIZABETH CITY SUNNY     73  67  81 SW8       30.04F

.........CENTRAL NC.........

CITY           SKY/WX    TMP DP  RH WIND       PRES   REMARKS
RALEIGH DURHAM PTSUNNY   72  67  84 NW5       30.06F
ROCKY MOUNT    PTSUNNY   72  68  87 SW6       30.06S
ROANOKE RAPIDS NOT AVBL
FAYETTEVILLE   CLOUDY    72  70  93 CALM      30.06S FOG
HOFFMAN        NOT AVBL

.........WESTERN NC.........

CITY           SKY/WX    TMP DP  RH WIND       PRES   REMARKS
CHARLOTTE      PTSUNNY   73  67  81 SW3       30.08S
GREENSBORO     PTSUNNY   70  65  84 CALM      30.07S
HICKORY        NOT AVBL
BOONE          NOT AVBL
ASHEVILLE      NOT AVBL

.....................REST OF SOUTH CAROLINA.....................

.........EASTERN SC.........

CITY           SKY/WX    TMP DP  RH WIND       PRES   REMARKS
CHARLESTON     PTSUNNY   76  74  93 SW3       30.05S
BEAUFORT MCAS  CLOUDY    78  74  87 SW5       30.06S
HILTON HEAD    NOT AVBL

.........CENTRAL SC.........

CITY           SKY/WX    TMP DP  RH WIND       PRES   REMARKS
COLUMBIA       CLOUDY    75  71  87 W5        30.06S
ORANGEBURG     CLOUDY    75  71  87 N3        30.06S
SUMTER SHAW    CLOUDY    73  69  89 W2        30.05F

.........WESTERN SC.........

CITY           SKY/WX    TMP DP  RH WIND       PRES   REMARKS
GREENVILLE     NOT AVBL
ROCK HILL      CLOUDY    72  69  90 CALM      30.08S
ANDERSON       PTSUNNY   73  70  90 W6        30.08F
CLEMSON        NOT AVBL
GREENWOOD      MOSUNNY   74  69  85 NW5       30.08F


...................COASTAL AND OFFSHORE REPORTS..................

................LOCAL PIERS AND NC RESERVE................


STATION/POSITION TIME  SKY/WX   TEMP    WIND        PRES    VSBY
                                AIR SEA DIR/SP/G
                 (UTC)          (F)     (DEG/KT/KT) (MB)    (MI)
JOHNY MRCER PIER 1300            76     330/  4/  6 1016.9
NC RESRV MASNBRO 1200            73     270/  1     1017.0S
OCEAN CREST PIER 1300            77 81  270/  6/  9 1016.4F
SPRINGMAID  PIER 1300            74     300/  4/  5 1017.6


................COASTAL AND OFFSHORE BUOYS................


STATION/POSITION TIME  SKY/WX   TEMP    WIND        PRES    VSBY
                                AIR SEA DIR/SP/G
                 (UTC)          (F)     (DEG/KT/KT) (MB)    (MI)
DIMNDSHOAL 41025 1300            76     300/  8/ 10 1017.4F
WVE H/P(F/S)=  2/ 7 SWL H/P/D(F/S/D)=  2/ 40/ 7

CAPE LOOKOUT     1300            76      60/  6/  7 1017.3S
ONSLOW BAY 41036 1300            73 80  190/ 10/ 14 1017.6F
WVE H/P(F/S)=  2/ 8 WND WVE H/P(F/S)=  2/ 5 SWL H/P/D(F/S/D)=  2/100/ 8

5 WRITEBCH 41038 1200            74 81  310/  8/  8   N/A
MASONBORO  41110 1300               81                N/A
WVE H/P(F/S)=  1/13 WND WVE H/P(F/S)=  2/ 6

WILM HARBR 41108 1300               82                N/A
WVE H/P(F/S)=  2/13 WND WVE H/P(F/S)=  2/ 8

27WRITEBCH 41037 NOT AVBL
FRYING PAN 41013 NOT AVBL
SUNST NRSH 41024 NOT AVBL
CAPRS NRSH 41029 1200            78     340/  6/  6   N/A
EDISTO     41004 1300            80 83  340/  6/  6 1017.1R
WVE H/P(F/S)=  2/ 7 SWL H/P/D(F/S/D)=  2/ 7



..........OFFSHORE BUOYS BEYOND 100 NM OFFSHORE...........
.....IN A TRIANGLE---HAT TO BERMUDA TO BAHAMAS TO HAT.....


STATION/POSITION TIME  SKY/WX   TEMP    WIND        PRES    VSBY
                                AIR SEA DIR/SP/G
                 (UTC)          (F)     (DEG/KT/KT) (MB)    (MI)
150E HAT   41001 NOT AVBL
W BERMUDA  41048 1250            81 82  240/ 16/ 19 1015.7F
WVE H/P(F/S)=  5/15 WND WVE H/P(F/S)=  3/ 7 SWL H/P/D(F/S/D)=  3/110/15

ATLANTIC S 41049 1151            83 85  330/ 10/ 14 1016.0R
WVE H/P(F/S)=  9/14 WND WVE H/P(F/S)=  2/ 5 SWL H/P/D(F/S/D)=  8/ 90/14

E BAHAMAS  41046 1155            83 84   60/  8/ 10 1017.2
WVE H/P(F/S)=  6/11 WND WVE H/P(F/S)=  2/ 4 SWL H/P/D(F/S/D)=  5/110/11

NE BAHAMAS 41047 1249            81 84  330/  4/  6 1018.5F
WVE H/P(F/S)=  3/12 SWL H/P/D(F/S/D)=  3/120/12

120E CANVRL41010 1300            82 85  280/  8/ 10 1018.2S
WVE H/P(F/S)=  2/ 8 SWL H/P/D(F/S/D)=  2/ 50/ 8


END


USA.gov is the U.S. government's official web portal to all federal, state and local government web resources and services.